contact:dominique.lefevre@mio.osupytheas.fr, maurice.libes@osupytheas.fr, didier.mallarino@osupytheas.fr
Project:EMSO http://www.emso-fr.org/EMSO-France
Depth: 2436.0 m
Title:EMSO Ligure Ouest : Data MII capteur MICROCAT
DateTime_Computer,Latitude,Longitude,Temperature,Conductivity,Pressure,DateTime_Instrument
DateTime_Computer,Latitude,Longitude,degC,S m-1,dbar,DateTime_Instrument
2019-09-04T09:33:48Z,42.805,6.029,13.3009,4.60022,2469.909,2019-9-04T11:34:11Z
2019-09-04T09:36:52Z,42.805,6.029,13.3010,4.59972,2469.96,2019-9-04T11:37:14Z
2019-09-04T09:39:55Z,42.805,6.029,13.3000,4.59999,2469.947,2019-9-04T11:40:17Z
2019-09-04T09:42:58Z,42.805,6.029,13.3004,4.59998,2469.947,2019-9-04T11:43:21Z
2019-09-04T09:46:02Z,42.805,6.029,13.2998,4.59968,2469.96,2019-9-04T11:46:24Z
2019-09-04T09:49:05Z,42.805,6.029,13.2967,4.59987,2469.947,2019-9-04T11:49:27Z
2019-09-04T09:52:08Z,42.805,6.029,13.2964,4.59966,2469.96,2019-9-04T11:52:31Z
2019-09-04T09:55:11Z,42.805,6.029,13.3001,4.60003,2469.96,2019-9-04T11:55:34Z
2019-09-04T09:58:15Z,42.805,6.029,13.2970,4.60005,2469.947,2019-9-04T11:58:37Z
2019-09-04T10:01:18Z,42.805,6.029,13.2964,4.59970,2469.993,2019-9-04T12:01:40Z
2019-09-04T10:04:21Z,42.805,6.029,13.2961,4.59966,2469.96,2019-9-04T12:04:43Z
2019-09-04T10:07:24Z,42.805,6.029,13.2970,4.59969,2469.96,2019-9-04T12:07:47Z
2019-09-04T10:10:28Z,42.805,6.029,13.2979,4.59981,2469.97,2019-9-04T12:10:50Z
2019-09-04T10:13:31Z,42.805,6.029,13.2973,4.59972,2469.947,2019-9-04T12:13:53Z
2019-09-04T10:16:34Z,42.805,6.029,13.2983,4.60034,2469.96,2019-9-04T12:16:56Z
2019-09-04T10:19:37Z,42.805,6.029,13.3006,4.60021,2469.947,2019-9-04T12:19:59Z
2019-09-04T10:22:40Z,42.805,6.029,13.3007,4.60031,2469.937,2019-9-04T12:23:03Z
2019-09-04T10:25:43Z,42.805,6.029,13.2991,4.60010,2469.947,2019-9-04T12:26:06Z
2019-09-04T10:28:47Z,42.805,6.029,13.3006,4.60029,2469.993,2019-9-04T12:29:09Z
2019-09-04T10:31:50Z,42.805,6.029,13.3006,4.60020,2469.947,2019-9-04T12:32:12Z
2019-09-04T10:34:53Z,42.805,6.029,13.2994,4.59985,2469.947,2019-9-04T12:35:15Z
2019-09-04T10:37:56Z,42.805,6.029,13.2987,4.60006,2469.984,2019-9-04T12:38:19Z
2019-09-04T10:40:59Z,42.805,6.029,13.2964,4.59975,2469.97,2019-9-04T12:41:22Z
2019-09-04T10:44:03Z,42.805,6.029,13.2983,4.59973,2469.97,2019-9-04T12:44:25Z
2019-09-04T10:47:06Z,42.805,6.029,13.2982,4.59983,2469.96,2019-9-04T12:47:28Z
2019-09-04T10:50:09Z,42.805,6.029,13.2976,4.59988,2469.97,2019-9-04T12:50:31Z
2019-09-04T10:53:12Z,42.805,6.029,13.2970,4.59971,2469.96,2019-9-04T12:53:34Z
2019-09-04T10:56:15Z,42.805,6.029,13.2960,4.59970,2469.947,2019-9-04T12:56:38Z
2019-09-04T10:59:19Z,42.805,6.029,13.2962,4.59968,2469.947,2019-9-04T12:59:41Z
2019-09-04T11:02:22Z,42.805,6.029,13.2958,4.59971,2469.984,2019-9-04T13:02:44Z
2019-09-04T11:05:25Z,42.805,6.029,13.2961,4.59964,2469.947,2019-9-04T13:05:47Z
2019-09-04T11:08:28Z,42.805,6.029,13.2962,4.59969,2469.947,2019-9-04T13:08:50Z
2019-09-04T11:11:31Z,42.805,6.029,13.2977,4.59967,2469.984,2019-9-04T13:11:54Z
2019-09-04T11:14:35Z,42.805,6.029,13.2958,4.59971,2469.947,2019-9-04T13:14:57Z
2019-09-04T11:17:38Z,42.805,6.029,13.2957,4.59969,2469.984,2019-9-04T13:18:00Z
2019-09-04T11:20:41Z,42.805,6.029,13.2958,4.59969,2469.947,2019-9-04T13:21:03Z
2019-09-04T11:23:44Z,42.805,6.029,13.2974,4.59977,2469.947,2019-9-04T13:24:06Z
2019-09-04T11:26:47Z,42.805,6.029,13.2977,4.59967,2469.96,2019-9-04T13:27:10Z
2019-09-04T11:29:51Z,42.805,6.029,13.2961,4.59967,2469.947,2019-9-04T13:30:13Z
2019-09-04T11:32:54Z,42.805,6.029,13.2961,4.59963,2469.96,2019-9-04T13:33:16Z
2019-09-04T11:35:57Z,42.805,6.029,13.2967,4.59965,2469.947,2019-9-04T13:36:19Z
2019-09-04T11:39:00Z,42.805,6.029,13.2984,4.59963,2469.937,2019-9-04T13:39:22Z
2019-09-04T11:42:03Z,42.805,6.029,13.2961,4.59963,2469.947,2019-9-04T13:42:26Z
2019-09-04T11:45:07Z,42.805,6.029,13.2967,4.59964,2469.947,2019-9-04T13:45:29Z
2019-09-04T11:48:10Z,42.805,6.029,13.2958,4.59964,2469.947,2019-9-04T13:48:32Z
2019-09-04T11:51:13Z,42.805,6.029,13.2974,4.59968,2469.96,2019-9-04T13:51:35Z
2019-09-04T11:54:16Z,42.805,6.029,13.2964,4.59969,2469.96,2019-9-04T13:54:38Z
2019-09-04T11:57:19Z,42.805,6.029,13.2960,4.59966,2469.937,2019-9-04T13:57:42Z
2019-09-04T12:00:22Z,42.805,6.029,13.2960,4.59961,2469.923,2019-9-04T14:00:45Z
2019-09-04T12:03:26Z,42.805,6.029,13.2974,4.59969,2469.96,2019-9-04T14:03:48Z
2019-09-04T12:06:29Z,42.805,6.029,13.2975,4.59973,2469.947,2019-9-04T14:06:51Z
2019-09-04T12:09:32Z,42.805,6.029,13.2960,4.59968,2469.89,2019-9-04T14:09:54Z
2019-09-04T12:12:35Z,42.805,6.029,13.2993,4.59996,2469.937,2019-9-04T14:12:58Z
2019-09-04T12:15:38Z,42.805,6.029,13.2990,4.59996,2469.984,2019-9-04T14:16:01Z
2019-09-04T12:18:42Z,42.805,6.029,13.2994,4.59987,2469.937,2019-9-04T14:19:04Z
2019-09-04T12:21:45Z,42.805,6.029,13.3005,4.59989,2469.923,2019-9-04T14:22:07Z
2019-09-04T12:24:48Z,42.805,6.029,13.2972,4.59964,2469.947,2019-9-04T14:25:10Z
2019-09-04T12:27:51Z,42.805,6.029,13.2976,4.59968,2469.9,2019-9-04T14:28:13Z
2019-09-04T12:30:54Z,42.805,6.029,13.2993,4.59974,2469.947,2019-9-04T14:31:17Z
2019-09-04T12:33:58Z,42.805,6.029,13.2993,4.60005,2469.937,2019-9-04T14:34:20Z
2019-09-04T12:37:01Z,42.805,6.029,13.2990,4.59998,2469.914,2019-9-04T14:37:23Z
2019-09-04T12:40:04Z,42.805,6.029,13.2996,4.59996,2469.914,2019-9-04T14:40:26Z
2019-09-04T12:43:07Z,42.805,6.029,13.2996,4.60001,2469.923,2019-9-04T14:43:29Z
2019-09-04T12:46:10Z,42.805,6.029,13.2994,4.60027,2469.947,2019-9-04T14:46:33Z
2019-09-04T12:49:14Z,42.805,6.029,13.2986,4.59994,2469.9,2019-9-04T14:49:36Z
2019-09-04T12:52:17Z,42.805,6.029,13.2978,4.59983,2469.937,2019-9-04T14:52:39Z
2019-09-04T12:55:20Z,42.805,6.029,13.2985,4.59977,2469.937,2019-9-04T14:55:42Z
2019-09-04T12:58:23Z,42.805,6.029,13.2979,4.59998,2469.923,2019-9-04T14:58:45Z
2019-09-04T13:01:26Z,42.805,6.029,13.2980,4.59994,2469.937,2019-9-04T15:01:49Z
2019-09-04T13:04:30Z,42.805,6.029,13.2980,4.59981,2469.937,2019-9-04T15:04:52Z
2019-09-04T13:07:33Z,42.805,6.029,13.2981,4.60020,2469.914,2019-9-04T15:07:55Z
2019-09-04T13:10:36Z,42.805,6.029,13.3000,4.60059,2469.876,2019-9-04T15:10:58Z
2019-09-04T13:13:39Z,42.805,6.029,13.3019,4.60003,2469.9,2019-9-04T15:14:01Z
2019-09-04T13:16:42Z,42.805,6.029,13.2990,4.60002,2469.9,2019-9-04T15:17:05Z
2019-09-04T13:19:46Z,42.805,6.029,13.2994,4.60010,2469.914,2019-9-04T15:20:08Z
2019-09-04T13:22:49Z,42.805,6.029,13.2993,4.60049,2469.9,2019-9-04T15:23:11Z
2019-09-04T13:25:52Z,42.805,6.029,13.2980,4.60019,2469.876,2019-9-04T15:26:14Z
2019-09-04T13:28:55Z,42.805,6.029,13.2979,4.60026,2469.89,2019-9-04T15:29:17Z
2019-09-04T13:31:58Z,42.805,6.029,13.2970,4.60021,2469.9,2019-9-04T15:32:21Z
2019-09-04T13:35:01Z,42.805,6.029,13.2978,4.60011,2469.914,2019-9-04T15:35:24Z
2019-09-04T13:38:05Z,42.805,6.029,13.3006,4.60021,2469.914,2019-9-04T15:38:27Z
2019-09-04T13:41:08Z,42.805,6.029,13.2985,4.60037,2469.914,2019-9-04T15:41:30Z
2019-09-04T13:44:11Z,42.805,6.029,13.2978,4.60026,2469.914,2019-9-04T15:44:33Z
2019-09-04T13:47:14Z,42.805,6.029,13.2982,4.60024,2469.9,2019-9-04T15:47:37Z
2019-09-04T13:50:17Z,42.805,6.029,13.2976,4.60021,2469.876,2019-9-04T15:50:40Z
2019-09-04T13:53:21Z,42.805,6.029,13.2974,4.60021,2469.89,2019-9-04T15:53:43Z
2019-09-04T13:56:24Z,42.805,6.029,13.2969,4.60006,2469.9,2019-9-04T15:56:46Z
2019-09-04T13:59:27Z,42.805,6.029,13.2976,4.60030,2469.9,2019-9-04T15:59:49Z
2019-09-04T14:02:30Z,42.805,6.029,13.2970,4.60018,2469.89,2019-9-04T16:02:53Z
2019-09-04T14:05:33Z,42.805,6.029,13.2973,4.60015,2469.89,2019-9-04T16:05:56Z
2019-09-04T14:08:37Z,42.805,6.029,13.2977,4.60028,2469.914,2019-9-04T16:08:59Z
2019-09-04T14:11:40Z,42.805,6.029,13.2970,4.60049,2469.914,2019-9-04T16:12:02Z
2019-09-04T14:14:43Z,42.805,6.029,13.2979,4.60022,2469.9,2019-9-04T16:15:05Z
2019-09-04T14:17:46Z,42.805,6.029,13.2975,4.60047,2469.853,2019-9-04T16:18:09Z
2019-09-04T14:20:49Z,42.805,6.029,13.2978,4.60052,2469.89,2019-9-04T16:21:12Z
2019-09-04T14:23:53Z,42.805,6.029,13.2997,4.60009,2469.9,2019-9-04T16:24:15Z
2019-09-04T14:26:56Z,42.805,6.029,13.2975,4.60031,2469.876,2019-9-04T16:27:18Z
2019-09-04T14:29:59Z,42.805,6.029,13.2976,4.60059,2469.89,2019-9-04T16:30:21Z
2019-09-04T14:33:02Z,42.805,6.029,13.2973,4.60032,2469.914,2019-9-04T16:33:24Z
2019-09-04T14:36:05Z,42.805,6.029,13.2974,4.60008,2469.867,2019-9-04T16:36:28Z
2019-09-04T14:39:09Z,42.805,6.029,13.2975,4.60046,2469.853,2019-9-04T16:39:31Z
2019-09-04T14:42:12Z,42.805,6.029,13.2975,4.60025,2469.853,2019-9-04T16:42:34Z
2019-09-04T14:45:15Z,42.805,6.029,13.2970,4.60025,2469.876,2019-9-04T16:45:37Z
2019-09-04T14:48:18Z,42.805,6.029,13.2974,4.59996,2469.9,2019-9-04T16:48:40Z
2019-09-04T14:51:21Z,42.805,6.029,13.2975,4.60062,2469.876,2019-9-04T16:51:44Z
2019-09-04T14:54:25Z,42.805,6.029,13.2974,4.60022,2469.881,2019-9-04T16:54:47Z
2019-09-04T14:57:28Z,42.805,6.029,13.2970,4.60033,2469.867,2019-9-04T16:57:50Z
2019-09-04T15:00:31Z,42.805,6.029,13.2979,4.60019,2469.853,2019-9-04T17:00:53Z
2019-09-04T15:03:34Z,42.805,6.029,13.2971,4.60030,2469.853,2019-9-04T17:03:57Z
2019-09-04T15:06:37Z,42.805,6.029,13.2972,4.60028,2469.844,2019-9-04T17:07:00Z
2019-09-04T15:09:41Z,42.805,6.029,13.2983,4.60033,2469.853,2019-9-04T17:10:03Z
2019-09-04T15:12:44Z,42.805,6.029,13.2982,4.60035,2469.853,2019-9-04T17:13:06Z
2019-09-04T15:15:47Z,42.805,6.029,13.2985,4.60012,2469.867,2019-9-04T17:16:09Z
2019-09-04T15:18:50Z,42.805,6.029,13.2975,4.60039,2469.867,2019-9-04T17:19:12Z
2019-09-04T15:21:53Z,42.805,6.029,13.2976,4.60030,2469.839,2019-9-04T17:22:16Z
2019-09-04T15:24:57Z,42.805,6.029,13.2973,4.60029,2469.83,2019-9-04T17:25:19Z
2019-09-04T15:28:00Z,42.805,6.029,13.2972,4.60039,2469.83,2019-9-04T17:28:22Z
2019-09-04T15:31:03Z,42.805,6.029,13.2979,4.60029,2469.853,2019-9-04T17:31:25Z
2019-09-04T15:34:06Z,42.805,6.029,13.2982,4.60018,2469.853,2019-9-04T17:34:28Z
2019-09-04T15:37:09Z,42.805,6.029,13.2974,4.60000,2469.821,2019-9-04T17:37:32Z
2019-09-04T15:40:12Z,42.805,6.029,13.2976,4.60049,2469.844,2019-9-04T17:40:35Z
2019-09-04T15:43:16Z,42.805,6.029,13.2974,4.60032,2469.844,2019-9-04T17:43:38Z
2019-09-04T15:46:19Z,42.805,6.029,13.2976,4.60036,2469.844,2019-9-04T17:46:41Z
2019-09-04T15:49:22Z,42.805,6.029,13.2986,4.60021,2469.83,2019-9-04T17:49:44Z
2019-09-04T15:52:25Z,42.805,6.029,13.2974,4.60021,2469.806,2019-9-04T17:52:48Z
2019-09-04T15:55:29Z,42.805,6.029,13.2978,4.60036,2469.844,2019-9-04T17:55:51Z
2019-09-04T15:58:32Z,42.805,6.029,13.2974,4.60033,2469.83,2019-9-04T17:58:54Z
2019-09-04T16:01:35Z,42.805,6.029,13.2974,4.60025,2469.83,2019-9-04T18:01:57Z
2019-09-04T16:04:38Z,42.805,6.029,13.3004,4.60043,2469.844,2019-9-04T18:05:00Z
2019-09-04T16:07:41Z,42.805,6.029,13.2968,4.60031,2469.83,2019-9-04T18:08:04Z
2019-09-04T16:10:44Z,42.805,6.029,13.2979,4.60006,2469.853,2019-9-04T18:11:07Z
2019-09-04T16:13:48Z,42.805,6.029,13.2990,4.60043,2469.83,2019-9-04T18:14:10Z
2019-09-04T16:16:51Z,42.805,6.029,13.2991,4.60023,2469.844,2019-9-04T18:17:13Z
2019-09-04T16:19:54Z,42.805,6.029,13.2972,4.60045,2469.821,2019-9-04T18:20:17Z
2019-09-04T16:22:58Z,42.805,6.029,13.2968,4.60001,2469.83,2019-9-04T18:23:20Z
2019-09-04T16:26:01Z,42.805,6.029,13.2973,4.60033,2469.867,2019-9-04T18:26:23Z
2019-09-04T16:29:04Z,42.805,6.029,13.2993,4.60034,2469.83,2019-9-04T18:29:26Z
2019-09-04T16:32:07Z,42.805,6.029,13.2974,4.60015,2469.83,2019-9-04T18:32:29Z
2019-09-04T16:35:10Z,42.805,6.029,13.2973,4.60021,2469.83,2019-9-04T18:35:33Z
2019-09-04T16:38:14Z,42.805,6.029,13.2972,4.60027,2469.834,2019-9-04T18:38:36Z
2019-09-04T16:41:17Z,42.805,6.029,13.2979,4.60019,2469.83,2019-9-04T18:41:39Z
2019-09-04T16:44:20Z,42.805,6.029,13.2987,4.60024,2469.83,2019-9-04T18:44:42Z
2019-09-04T16:47:23Z,42.805,6.029,13.2974,4.60046,2469.867,2019-9-04T18:47:46Z
2019-09-04T16:50:26Z,42.805,6.029,13.2979,4.60026,2469.783,2019-9-04T18:50:49Z
2019-09-04T16:53:30Z,42.805,6.029,13.2971,4.60041,2469.821,2019-9-04T18:53:52Z
2019-09-04T16:56:33Z,42.805,6.029,13.2979,4.60046,2469.793,2019-9-04T18:56:55Z
2019-09-04T16:59:36Z,42.805,6.029,13.2990,4.60016,2469.806,2019-9-04T18:59:58Z
2019-09-04T17:02:39Z,42.805,6.029,13.2985,4.60034,2469.806,2019-9-04T19:03:02Z
2019-09-04T17:05:42Z,42.805,6.029,13.2974,4.60011,2469.821,2019-9-04T19:06:05Z
2019-09-04T17:08:46Z,42.805,6.029,13.2976,4.60029,2469.783,2019-9-04T19:09:08Z
2019-09-04T17:11:49Z,42.805,6.029,13.2970,4.60018,2469.821,2019-9-04T19:12:11Z
2019-09-04T17:14:52Z,42.805,6.029,13.2990,4.60001,2469.783,2019-9-04T19:15:14Z
2019-09-04T17:17:55Z,42.805,6.029,13.2979,4.60006,2469.853,2019-9-04T19:18:17Z
2019-09-04T17:20:58Z,42.805,6.029,13.2976,4.60058,2469.844,2019-9-04T19:21:21Z
2019-09-04T17:24:02Z,42.805,6.029,13.2969,4.60046,2469.783,2019-9-04T19:24:24Z
2019-09-04T17:27:05Z,42.805,6.029,13.2982,4.60057,2469.806,2019-9-04T19:27:27Z
2019-09-04T17:30:08Z,42.805,6.029,13.2989,4.60067,2469.806,2019-9-04T19:30:30Z
2019-09-04T17:33:11Z,42.805,6.029,13.2996,4.60042,2469.844,2019-9-04T19:33:33Z
2019-09-04T17:36:14Z,42.805,6.029,13.2995,4.60027,2469.806,2019-9-04T19:36:37Z
2019-09-04T17:39:18Z,42.805,6.029,13.2982,4.60009,2469.83,2019-9-04T19:39:40Z
2019-09-04T17:42:21Z,42.805,6.029,13.2985,4.60044,2469.821,2019-9-04T19:42:43Z
2019-09-04T17:45:24Z,42.805,6.029,13.2982,4.60038,2469.821,2019-9-04T19:45:46Z
2019-09-04T17:48:27Z,42.805,6.029,13.2994,4.60018,2469.83,2019-9-04T19:48:49Z
2019-09-04T17:51:30Z,42.805,6.029,13.2997,4.60046,2469.806,2019-9-04T19:51:53Z
2019-09-04T17:54:34Z,42.805,6.029,13.3011,4.60018,2469.844,2019-9-04T19:54:56Z
2019-09-04T17:57:37Z,42.805,6.029,13.2995,4.60001,2469.806,2019-9-04T19:57:59Z
2019-09-04T18:00:40Z,42.805,6.029,13.3000,4.60026,2469.844,2019-9-04T20:01:02Z
2019-09-04T18:03:43Z,42.805,6.029,13.3000,4.59981,2469.821,2019-9-04T20:04:05Z
2019-09-04T18:06:46Z,42.805,6.029,13.2982,4.60023,2469.83,2019-9-04T20:07:09Z
2019-09-04T18:09:50Z,42.805,6.029,13.2989,4.59988,2469.806,2019-9-04T20:10:12Z
2019-09-04T18:12:53Z,42.805,6.029,13.3000,4.59991,2469.867,2019-9-04T20:13:15Z
2019-09-04T18:15:56Z,42.805,6.029,13.2996,4.60023,2469.83,2019-9-04T20:16:18Z
2019-09-04T18:18:59Z,42.805,6.029,13.2992,4.60030,2469.867,2019-9-04T20:19:21Z
2019-09-04T18:22:03Z,42.805,6.029,13.2994,4.60000,2469.844,2019-9-04T20:22:25Z
2019-09-04T18:25:06Z,42.805,6.029,13.2997,4.59984,2469.783,2019-9-04T20:25:28Z
2019-09-04T18:28:09Z,42.805,6.029,13.2982,4.59980,2469.83,2019-9-04T20:28:32Z
2019-09-04T18:31:13Z,42.805,6.029,13.2994,4.60019,2469.83,2019-9-04T20:31:35Z
2019-09-04T18:34:16Z,42.805,6.029,13.3004,4.59998,2469.83,2019-9-04T20:34:38Z
2019-09-04T18:37:19Z,42.805,6.029,13.2976,4.60026,2469.853,2019-9-04T20:37:41Z
2019-09-04T18:40:22Z,42.805,6.029,13.2983,4.60019,2469.853,2019-9-04T20:40:44Z
2019-09-04T18:43:25Z,42.805,6.029,13.2983,4.59981,2469.853,2019-9-04T20:43:48Z
2019-09-04T18:46:29Z,42.805,6.029,13.2998,4.60013,2469.844,2019-9-04T20:46:51Z
2019-09-04T18:49:32Z,42.805,6.029,13.3002,4.59996,2469.83,2019-9-04T20:49:54Z
2019-09-04T18:52:35Z,42.805,6.029,13.3007,4.59992,2469.867,2019-9-04T20:52:57Z
2019-09-04T18:55:38Z,42.805,6.029,13.2990,4.59981,2469.83,2019-9-04T20:56:00Z
2019-09-04T18:58:41Z,42.805,6.029,13.2988,4.59983,2469.867,2019-9-04T20:59:04Z
2019-09-04T19:01:45Z,42.805,6.029,13.2991,4.59982,2469.83,2019-9-04T21:02:07Z
2019-09-04T19:04:48Z,42.805,6.029,13.2966,4.59971,2469.844,2019-9-04T21:05:10Z
2019-09-04T19:07:51Z,42.805,6.029,13.2960,4.59967,2469.853,2019-9-04T21:08:13Z
2019-09-04T19:10:54Z,42.805,6.029,13.2958,4.59962,2469.853,2019-9-04T21:11:16Z
2019-09-04T19:13:57Z,42.805,6.029,13.2982,4.59988,2469.867,2019-9-04T21:14:20Z
2019-09-04T19:17:01Z,42.805,6.029,13.2982,4.59993,2469.867,2019-9-04T21:17:23Z
2019-09-04T19:20:04Z,42.805,6.029,13.2986,4.59971,2469.83,2019-9-04T21:20:26Z
2019-09-04T19:23:07Z,42.805,6.029,13.3003,4.59983,2469.89,2019-9-04T21:23:29Z
2019-09-04T19:26:10Z,42.805,6.029,13.2983,4.59974,2469.844,2019-9-04T21:26:32Z
2019-09-04T19:29:13Z,42.805,6.029,13.2960,4.59971,2469.867,2019-9-04T21:29:36Z
2019-09-04T19:32:17Z,42.805,6.029,13.2956,4.59966,2469.876,2019-9-04T21:32:39Z
2019-09-04T19:35:20Z,42.805,6.029,13.2960,4.59966,2469.914,2019-9-04T21:35:42Z
2019-09-04T19:38:23Z,42.805,6.029,13.2958,4.59958,2469.876,2019-9-04T21:38:45Z
2019-09-04T19:41:26Z,42.805,6.029,13.2959,4.59955,2469.867,2019-9-04T21:41:48Z
2019-09-04T19:44:29Z,42.805,6.029,13.2960,4.59962,2469.9,2019-9-04T21:44:52Z
2019-09-04T19:47:33Z,42.805,6.029,13.2956,4.59961,2469.9,2019-9-04T21:47:55Z
2019-09-04T19:50:36Z,42.805,6.029,13.2959,4.59959,2469.89,2019-9-04T21:50:58Z
2019-09-04T19:53:39Z,42.805,6.029,13.2956,4.59958,2469.876,2019-9-04T21:54:01Z
2019-09-04T19:56:42Z,42.805,6.029,13.2956,4.59957,2469.876,2019-9-04T21:57:04Z
2019-09-04T19:59:45Z,42.805,6.029,13.2956,4.59956,2469.914,2019-9-04T22:00:08Z
2019-09-04T20:02:48Z,42.805,6.029,13.2952,4.59956,2469.9,2019-9-04T22:03:11Z
2019-09-04T20:05:52Z,42.805,6.029,13.2958,4.59958,2469.923,2019-9-04T22:06:14Z
2019-09-04T20:08:55Z,42.805,6.029,13.2956,4.59957,2469.9,2019-9-04T22:09:17Z
2019-09-04T20:11:58Z,42.805,6.029,13.2953,4.59961,2469.937,2019-9-04T22:12:20Z
2019-09-04T20:15:01Z,42.805,6.029,13.2971,4.59961,2469.923,2019-9-04T22:15:24Z
2019-09-04T20:18:05Z,42.805,6.029,13.2960,4.59967,2469.9,2019-9-04T22:18:27Z
2019-09-04T20:21:08Z,42.805,6.029,13.2961,4.59967,2469.923,2019-9-04T22:21:30Z
2019-09-04T20:24:11Z,42.805,6.029,13.2956,4.59958,2469.876,2019-9-04T22:24:33Z
2019-09-04T20:27:14Z,42.805,6.029,13.2960,4.59961,2469.914,2019-9-04T22:27:36Z
2019-09-04T20:30:17Z,42.805,6.029,13.2956,4.59966,2469.923,2019-9-04T22:30:40Z
2019-09-04T20:33:20Z,42.805,6.029,13.2957,4.59962,2469.923,2019-9-04T22:33:43Z
2019-09-04T20:36:24Z,42.805,6.029,13.2957,4.59960,2469.914,2019-9-04T22:36:46Z
2019-09-04T20:39:27Z,42.805,6.029,13.2958,4.59968,2469.923,2019-9-04T22:39:49Z
2019-09-04T20:42:30Z,42.805,6.029,13.2956,4.59958,2469.923,2019-9-04T22:42:52Z
2019-09-04T20:45:33Z,42.805,6.029,13.2956,4.59961,2469.96,2019-9-04T22:45:55Z
2019-09-04T20:48:36Z,42.805,6.029,13.2958,4.59957,2469.923,2019-9-04T22:48:59Z
2019-09-04T20:51:40Z,42.805,6.029,13.2955,4.59958,2469.96,2019-9-04T22:52:02Z
2019-09-04T20:54:43Z,42.805,6.029,13.2960,4.59959,2469.9,2019-9-04T22:55:05Z
2019-09-04T20:57:46Z,42.805,6.029,13.2959,4.59964,2469.937,2019-9-04T22:58:08Z
2019-09-04T21:00:49Z,42.805,6.029,13.2958,4.59958,2469.937,2019-9-04T23:01:11Z
2019-09-04T21:03:52Z,42.805,6.029,13.2960,4.59958,2469.96,2019-9-04T23:04:15Z
2019-09-04T21:06:56Z,42.805,6.029,13.2962,4.59961,2469.923,2019-9-04T23:07:18Z
2019-09-04T21:09:59Z,42.805,6.029,13.2976,4.59993,2469.947,2019-9-04T23:10:21Z
2019-09-04T21:13:02Z,42.805,6.029,13.2982,4.59960,2469.96,2019-9-04T23:13:24Z
2019-09-04T21:16:05Z,42.805,6.029,13.2998,4.59964,2469.923,2019-9-04T23:16:27Z
2019-09-04T21:19:08Z,42.805,6.029,13.2958,4.59958,2469.947,2019-9-04T23:19:31Z
2019-09-04T21:22:12Z,42.805,6.029,13.2958,4.59956,2469.947,2019-9-04T23:22:34Z
2019-09-04T21:25:15Z,42.805,6.029,13.2980,4.59967,2469.947,2019-9-04T23:25:37Z
2019-09-04T21:28:18Z,42.805,6.029,13.2968,4.59958,2469.96,2019-9-04T23:28:40Z
2019-09-04T21:31:21Z,42.805,6.029,13.2985,4.59961,2469.96,2019-9-04T23:31:44Z
2019-09-04T21:34:25Z,42.805,6.029,13.2958,4.59956,2469.923,2019-9-04T23:34:47Z
2019-09-04T21:37:28Z,42.805,6.029,13.2990,4.59973,2469.97,2019-9-04T23:37:50Z
2019-09-04T21:40:31Z,42.805,6.029,13.2994,4.59991,2469.984,2019-9-04T23:40:53Z
2019-09-04T21:43:34Z,42.805,6.029,13.2995,4.59976,2469.96,2019-9-04T23:43:57Z
2019-09-04T21:46:37Z,42.805,6.029,13.2995,4.60013,2469.947,2019-9-04T23:47:00Z
2019-09-04T21:49:41Z,42.805,6.029,13.2990,4.59999,2469.947,2019-9-04T23:50:03Z
2019-09-04T21:52:44Z,42.805,6.029,13.2979,4.60031,2469.984,2019-9-04T23:53:06Z
2019-09-04T21:55:47Z,42.805,6.029,13.2993,4.60001,2469.947,2019-9-04T23:56:09Z
2019-09-04T21:58:50Z,42.805,6.029,13.2995,4.59999,2469.947,2019-9-04T23:59:13Z
2019-09-04T22:01:55Z,42.805,6.029,13.3005,4.59986,2469.984,2019-9-05T00:02:17Z
2019-09-04T22:04:59Z,42.805,6.029,13.2986,4.60003,2469.984,2019-9-05T00:05:21Z
2019-09-04T22:08:02Z,42.805,6.029,13.2973,4.59965,2469.97,2019-9-05T00:08:24Z
2019-09-04T22:11:05Z,42.805,6.029,13.2974,4.59985,2469.993,2019-9-05T00:11:27Z
2019-09-04T22:14:08Z,42.805,6.029,13.2983,4.59966,2469.947,2019-9-05T00:14:31Z
2019-09-04T22:17:12Z,42.805,6.029,13.2967,4.59998,2469.96,2019-9-05T00:17:34Z
2019-09-04T22:20:15Z,42.805,6.029,13.2985,4.59971,2469.96,2019-9-05T00:20:37Z
2019-09-04T22:23:18Z,42.805,6.029,13.2979,4.59965,2469.984,2019-9-05T00:23:40Z
2019-09-04T22:26:21Z,42.805,6.029,13.2969,4.59957,2469.97,2019-9-05T00:26:43Z
2019-09-04T22:29:24Z,42.805,6.029,13.2960,4.59963,2470.03,2019-9-05T00:29:47Z
2019-09-04T22:32:28Z,42.805,6.029,13.2953,4.59958,2469.984,2019-9-05T00:32:50Z
2019-09-04T22:35:31Z,42.805,6.029,13.2961,4.59961,2470.03,2019-9-05T00:35:53Z
2019-09-04T22:38:34Z,42.805,6.029,13.2956,4.59963,2469.97,2019-9-05T00:38:56Z
2019-09-04T22:41:37Z,42.805,6.029,13.2957,4.59958,2469.97,2019-9-05T00:41:59Z
2019-09-04T22:44:40Z,42.805,6.029,13.2955,4.59958,2470.007,2019-9-05T00:45:03Z
2019-09-04T22:47:44Z,42.805,6.029,13.2964,4.59960,2469.984,2019-9-05T00:48:06Z
2019-09-04T22:50:47Z,42.805,6.029,13.2961,4.59963,2469.993,2019-9-05T00:51:09Z
2019-09-04T22:53:50Z,42.805,6.029,13.2958,4.59959,2469.97,2019-9-05T00:54:12Z
2019-09-04T22:56:53Z,42.805,6.029,13.2957,4.59960,2469.993,2019-9-05T00:57:15Z
2019-09-04T22:59:56Z,42.805,6.029,13.2957,4.59956,2469.984,2019-9-05T01:00:19Z
2019-09-04T23:03:00Z,42.805,6.029,13.2961,4.59960,2469.96,2019-9-05T01:03:22Z
2019-09-04T23:06:03Z,42.805,6.029,13.2968,4.59968,2469.97,2019-9-05T01:06:25Z
2019-09-04T23:09:06Z,42.805,6.029,13.2959,4.59965,2470.007,2019-9-05T01:09:28Z
2019-09-04T23:12:09Z,42.805,6.029,13.2991,4.59981,2470.007,2019-9-05T01:12:31Z
2019-09-04T23:15:12Z,42.805,6.029,13.2976,4.59995,2469.97,2019-9-05T01:15:35Z
2019-09-04T23:18:16Z,42.805,6.029,13.2986,4.59976,2469.984,2019-9-05T01:18:38Z
2019-09-04T23:21:19Z,42.805,6.029,13.3020,4.59982,2469.96,2019-9-05T01:21:41Z
2019-09-04T23:24:22Z,42.805,6.029,13.2961,4.59962,2469.947,2019-9-05T01:24:44Z
2019-09-04T23:27:25Z,42.805,6.029,13.2971,4.59991,2469.984,2019-9-05T01:27:47Z
2019-09-04T23:30:28Z,42.805,6.029,13.2971,4.59965,2469.984,2019-9-05T01:30:51Z
2019-09-04T23:33:32Z,42.805,6.029,13.2980,4.59968,2469.993,2019-9-05T01:33:54Z
2019-09-04T23:36:35Z,42.805,6.029,13.2979,4.59965,2469.984,2019-9-05T01:36:57Z
2019-09-04T23:39:38Z,42.805,6.029,13.2977,4.59957,2469.947,2019-9-05T01:40:00Z
2019-09-04T23:42:41Z,42.805,6.029,13.2998,4.59993,2469.993,2019-9-05T01:43:03Z
2019-09-04T23:45:44Z,42.805,6.029,13.2985,4.60011,2469.984,2019-9-05T01:46:07Z
2019-09-04T23:48:48Z,42.805,6.029,13.2986,4.59980,2469.96,2019-9-05T01:49:10Z
2019-09-04T23:51:51Z,42.805,6.029,13.2976,4.60036,2469.984,2019-9-05T01:52:13Z
2019-09-04T23:54:54Z,42.805,6.029,13.2990,4.59996,2469.96,2019-9-05T01:55:16Z
2019-09-04T23:57:57Z,42.805,6.029,13.2987,4.60021,2469.96,2019-9-05T01:58:19Z
